Location: Écuvilly
(49.6505°N, 2.9206°E)
Time: 07:46:09
(UTC+00:00)

SL-16 R/B - Visible Passes

Search period start: 14 February 2026 00:00
Search period end: 24 February 2026 00:00
Orbit: 984 x 1007 km, 99.8° (Epoch: 10 February)

Date Brightness Start Highest point End Pass type
(mag) Time Alt. Az. Time Alt. Az. Time Alt. Az.
14 Feb 4.8 02:42:19 15° N 02:42:19 15° N 02:43:18 10° N visible
14 Feb 4.8 18:38:34 10° N 18:43:04 22° NW 18:47:34 10° W visible
15 Feb 5.1 01:28:05 13° NNE 01:28:05 13° NNE 01:29:08 10° NNE visible
15 Feb 4.6 03:13:08 16° N 03:13:08 16° N 03:14:11 10° NNW visible
15 Feb 5.1 19:10:06 10° NNW 19:13:14 14° NW 19:16:22 10° WNW visible
16 Feb 4.8 01:58:53 16° NNE 01:58:53 16° NNE 02:00:31 10° N visible
16 Feb 4.5 03:43:57 15° NNW 03:43:57 15° NNW 03:44:54 10° NNW visible
16 Feb 4.0 17:55:43 10° N 18:01:21 38° WNW 18:06:59 10° SW visible
17 Feb 4.5 02:29:41 20° N 02:29:41 20° N 02:31:38 10° N visible
17 Feb 4.5 04:14:44 14° NNW 04:14:44 14° NNW 04:15:29 10° NNW visible
17 Feb 4.6 18:26:48 10° N 18:31:42 25° NW 18:36:36 10° WSW visible
18 Feb 5.1 01:15:25 13° NNE 01:15:25 13° NNE 01:17:12 10° NNE visible
18 Feb 4.3 03:00:28 22° N 03:00:28 22° N 03:02:35 10° N visible
18 Feb 4.5 04:45:31 11° NW 04:45:31 11° NW 04:45:47 10° NW visible
18 Feb 5.0 18:58:10 10° N 19:01:55 17° NW 19:05:41 10° W visible
19 Feb 4.8 01:46:11 18° NNE 01:46:11 18° NNE 01:48:47 10° N visible
19 Feb 4.1 03:31:15 23° NNW 03:31:15 23° NNW 03:33:23 10° NNW visible
19 Feb 3.8 17:44:04 10° N 17:49:55 45° WNW 17:55:46 10° SW visible
19 Feb 5.3 19:30:15 10° NNW 19:32:01 11° NW 19:33:45 10° WNW visible
20 Feb 4.4 02:16:57 24° NNE 02:16:57 24° NNE 02:19:58 10° N visible
20 Feb 4.0 04:02:00 22° NNW 04:02:00 22° NNW 04:04:02 10° NNW visible
20 Feb 4.4 18:15:05 10° N 18:20:19 29° WNW 18:25:34 10° WSW visible
21 Feb 5.2 01:02:38 12° NE 01:02:55 12° NE 01:05:04 10° NNE visible
21 Feb 3.9 02:47:41 31° N 02:47:41 31° N 02:50:58 10° N visible
21 Feb 4.1 04:32:45 18° NW 04:32:45 18° NW 04:34:26 10° NNW visible
21 Feb 5.0 18:46:19 10° N 18:50:35 20° NW 18:54:52 10° W visible
22 Feb 4.8 01:33:22 18° NE 01:33:22 18° NE 01:36:58 10° N visible
22 Feb 3.6 03:18:25 35° N 03:18:25 35° N 03:21:50 10° NNW visible
22 Feb 4.2 05:03:28 14° NW 05:03:28 14° NW 05:04:31 10° NW visible
22 Feb 5.2 19:17:59 10° NNW 19:20:44 13° NW 19:23:28 10° WNW visible
23 Feb 4.3 02:04:05 26° NE 02:04:05 26° NE 02:08:17 10° N visible
23 Feb 3.4 03:49:07 34° NNW 03:49:07 34° NNW 03:52:31 10° NNW visible
23 Feb 4.2 18:03:24 10° N 18:08:55 35° WNW 18:14:25 10° WSW visible
